Regional Weather Roundup
Issued by NWS

Home | Current Version | Previous Version | Text Only | Print | Product List | Glossary Off
Versions: 1 2 3 4 5 6 7 8 9 10 11 12 13 14 15 16 17 18 19 20 21 22 23 24 25 26 27 28

000
ASUS45 KCYS 300710
RWRWY

WYOMING REGIONAL WEATHER ROUNDUP
NATIONAL WEATHER SERVICE CHEYENNE WY
100 AM MDT THU OCT 30 2014

NOTE:  "FAIR" INDICATES FEW OR NO CLOUDS BELOW 12,000 FEET
WITH NO SIGNIFICANT WEATHER AND/OR OBSTRUCTIONS TO VISIBILITY.

WYZ001-300800-
YELLOWSTONE NATIONAL PARK

CITY           SKY/WX    TMP DP  RH WIND       PRES   REMARKS
LK YELLOWSTONE   N/A     27  24  89 CALM      30.36
W YELLOWSTONE  NOT AVBL

$$
WYZ002>013-054>058-071-098>099-300800-
NORTHERN WYOMING

CITY           SKY/WX    TMP DP  RH WIND       PRES   REMARKS
JACKSON        PTCLDY    30  28  93 N3        30.33R
CODY           MOCLDY    37  25  60 S3        30.25R
GREYBULL       CLEAR     36  23  59 S5        30.22R WCI  32
WORLAND        CLEAR     36  22  56 S7        30.23S WCI  30
SHERIDAN       PTCLDY    44  28  53 CALM      30.23R
BUFFALO        CLEAR     47  25  42 NW12      30.24S
GILLETTE       CLEAR     40  25  55 W10       30.20R WCI  33
HULETT         FAIR      43  30  61 SW5       30.19
NEWCASTLE      FAIR      37  28  70 N10       30.19  WCI  30

$$
WYZ014>020-022>026-101>103-300800-
CENTRAL WYOMING

CITY           SKY/WX    TMP DP  RH WIND       PRES   REMARKS
BIG PINEY      PTCLDY    23  19  85 N3        30.36R
PINEDALE       SUNNY     23  23 100 W6        30.35S WCI  16
DUBOIS         FAIR      32  27  80 W7        30.31R WCI  26
LANDER         CLEAR     37  25  61 CALM      30.26R
RIVERTON       CLEAR     39  26  59 W9        30.26S WCI  33
CASPER         CLEAR     27  18  69 W6        30.28R WCI  20
DOUGLAS        PTCLDY    37  22  54 NW3       30.27R

$$
WYZ021-027>030-104>119-300800-
SOUTHERN WYOMING

CITY           SKY/WX    TMP DP  RH WIND       PRES   REMARKS
EVANSTON       PTCLDY    42  24  49 S6        30.36R
KEMMERER       SUNNY     37  30  75 CALM      30.36S
FORT BRIDGER   FAIR      42  26  53 SW7       30.38R
ROCK SPRINGS   PTCLDY    41  28  60 SW7       30.34S
RAWLINS        PTCLDY    38  23  55 W5        30.33R WCI  34
SARATOGA       PTSUNNY   41  27  56 W12       30.34R
LARAMIE        MOCLDY    41  24  51 NW9       30.30R
CHEYENNE       CLOUDY    45  24  43 N10       30.26R
TORRINGTON     CLEAR     42  23  46 NW9       30.21R
PINE BLUFFS    FAIR      37  28  70 NW12      30.24R WCI  30

$$



USA.gov is the U.S. government's official web portal to all federal, state and local government web resources and services.